Arbor Vitae, WI

10:24 AM CDT on August 16, 2017 (GMT -0500)
Lakeland-Lee Memorial

Weather History for KARV - April, 2014

Change the Weather History Date:

Wednesday, April 9, 2014

  Actual Average Record
Temperature  
Mean Temperature 38 °F -  
Max Temperature 54 °F 45 °F 73 °F (1955)
Min Temperature 21 °F 23 °F -6 °F (1923)
Degree Days  
Heating Degree Days 28    
Moisture  
Dew Point 24 °F    
Average Humidity 54    
Maximum Humidity 76    
Minimum Humidity 39    
Precipitation  
Precipitation 0.00 in - - ()
Sea Level Pressure  
Sea Level Pressure 29.75 in    
Wind  
Wind Speed 5 mph (SSW)    
Max Wind Speed 24 mph    
Max Gust Speed 32 mph    
Visibility 10 miles    
Events      
Averages and records for this station are not official NWS values.
T = Trace of Precipitation, MM = Missing Value Source: NWS Daily Summary

Daily Weather History Graph

Daily Weather History Graph

Search for Another Location

Airport or City:

Trip Planner

Search our weather history database for the weather conditions in past years. The results will help you decide how hot, cold, wet, or windy it might be!

Date:

Astronomy

Apr. 09, 2014 Rise Set
Actual Time 6:23 AM CDT 7:37 PM CDT
Civil Twilight 5:53 AM CDT 8:08 PM CDT
Nautical Twilight 5:16 AM CDT 8:45 PM CDT
Astronomical Twilight 4:36 AM CDT 9:25 PM CDT
Moon 2:10 PM CDT (4/9) 3:29 AM CDT (4/9)
Length of Visible Light 14h 15m
Length of Day
13h 14m
Waxing Gibbous, 72% of the Moon is Illuminated
Apr 9
Waxing Gibbous
Apr 15
Full
Apr 22
Last Quarter
Apr 29
New
May 6
First Quarter

Hourly Weather History & Observations

Time (CDT) Temp. Windchill Dew Point Humidity Pressure Visibility Wind Dir Wind Speed Gust Speed Precip Events Conditions
12:15 AM 25.3 °F - 12.2 °F 58% 29.91 in 10.0 mi Calm Calm - N/A   Clear
12:35 AM 25.5 °F - 13.1 °F 59% 29.91 in 10.0 mi Calm Calm - N/A   Clear
12:55 AM 24.8 °F - 12.6 °F 60% 29.90 in 10.0 mi Calm Calm - N/A   Clear
1:15 AM 24.3 °F - 12.9 °F 62% 29.90 in 10.0 mi Calm Calm - N/A   Clear
1:35 AM 24.3 °F - 13.1 °F 63% 29.90 in 10.0 mi Calm Calm - N/A   Clear
1:55 AM 24.3 °F - 13.5 °F 63% 29.90 in 10.0 mi Calm Calm - N/A   Clear
2:15 AM 23.0 °F - 12.6 °F 64% 29.89 in 10.0 mi Calm Calm - N/A   Clear
2:35 AM 23.0 °F - 12.6 °F 64% 29.89 in 10.0 mi Calm Calm - N/A   Clear
2:55 AM 22.6 °F - 12.7 °F 66% 29.89 in 10.0 mi Calm Calm - N/A   Clear
3:15 AM 22.1 °F - 12.7 °F 67% 29.89 in 10.0 mi Calm Calm - N/A   Clear
3:35 AM 21.7 °F - 12.2 °F 67% 29.89 in 10.0 mi Calm Calm - N/A   Clear
3:55 AM 21.7 °F - 12.6 °F 68% 29.88 in 10.0 mi Calm Calm - N/A   Clear
4:15 AM 21.7 °F - 12.7 °F 68% 29.89 in 10.0 mi Calm Calm - N/A   Clear
4:35 AM 21.7 °F - 12.9 °F 69% 29.88 in 10.0 mi Calm Calm - N/A   Clear
4:55 AM 21.7 °F - 13.1 °F 69% 29.89 in 10.0 mi Calm Calm - N/A   Clear
5:15 AM 21.7 °F - 13.5 °F 70% 29.89 in 10.0 mi Calm Calm - N/A   Clear
5:35 AM 21.7 °F - 14.0 °F 72% 29.89 in 10.0 mi Calm Calm - N/A   Clear
5:55 AM 21.7 °F - 14.0 °F 72% 29.89 in 10.0 mi Calm Calm - N/A   Clear
6:15 AM 21.7 °F - 14.2 °F 73% 29.88 in 10.0 mi Calm Calm - N/A   Clear
6:35 AM 21.7 °F - 14.4 °F 73% 29.89 in 10.0 mi Calm Calm - N/A   Clear
6:55 AM 21.7 °F - 14.5 °F 74% 29.88 in 10.0 mi Calm Calm - N/A   Clear
7:15 AM 23.9 °F - 17.2 °F 76% 29.88 in 10.0 mi Calm Calm - N/A   Clear
7:35 AM 25.3 °F - 18.3 °F 75% 29.88 in 10.0 mi Calm Calm - N/A   Clear
7:55 AM 29.3 °F - 22.6 °F 76% 29.88 in 10.0 mi Calm Calm - N/A   Clear
8:15 AM 31.8 °F 28.5 °F 24.8 °F 75% 29.88 in 10.0 mi SSW 3.5 mph - N/A   Clear
8:35 AM 32.5 °F 28.1 °F 24.3 °F 72% 29.88 in 10.0 mi South 4.6 mph - N/A   Clear
8:55 AM 36.5 °F 32.7 °F 24.8 °F 63% 29.88 in 10.0 mi SW 4.6 mph - N/A   Clear
9:15 AM 41.5 °F 35.9 °F 28.6 °F 60% 29.87 in 10.0 mi SSW 9.2 mph - N/A   Clear
9:35 AM 42.1 °F 36.6 °F 25.5 °F 52% 29.85 in 10.0 mi SSW 9.2 mph 17.3 mph N/A   Scattered Clouds
9:55 AM 42.3 °F 35.5 °F 23.9 °F 48% 29.85 in 10.0 mi SSW 12.7 mph - N/A   Scattered Clouds
10:15 AM 42.8 °F 37.5 °F 23.7 °F 47% 29.85 in 10.0 mi SSW 9.2 mph - N/A   Scattered Clouds
10:35 AM 44.4 °F 39.0 °F 24.1 °F 45% 29.83 in 10.0 mi SSW 10.4 mph 16.1 mph N/A   Mostly Cloudy
10:55 AM 44.6 °F 39.7 °F 24.4 °F 45% 29.83 in 10.0 mi SSW 9.2 mph - N/A   Mostly Cloudy
11:15 AM 44.8 °F 39.0 °F 23.9 °F 44% 29.83 in 10.0 mi SW 11.5 mph 16.1 mph N/A   Mostly Cloudy
11:35 AM 44.1 °F 40.1 °F 23.2 °F 44% 29.81 in 10.0 mi SSW 6.9 mph 10.4 mph N/A   Overcast
11:55 AM 46.6 °F - 24.1 °F 41% 29.80 in 10.0 mi SSW 10.4 mph 16.1 mph N/A   Scattered Clouds
12:15 PM 45.5 °F 38.1 °F 25.2 °F 45% 29.79 in 10.0 mi SSW 18.4 mph 25.3 mph N/A   Scattered Clouds
12:35 PM 46.6 °F - 25.3 °F 43% 29.77 in 10.0 mi South 17.3 mph 23.0 mph N/A   Clear
12:55 PM 46.8 °F - 25.3 °F 43% 29.76 in 10.0 mi South 18.4 mph - N/A   Clear
1:15 PM 49.3 °F - 26.8 °F 42% 29.74 in 10.0 mi South 18.4 mph 23.0 mph N/A   Scattered Clouds
1:35 PM 49.8 °F - 26.4 °F 40% 29.73 in 10.0 mi South 17.3 mph 21.9 mph N/A   Scattered Clouds
1:55 PM 49.8 °F - 26.1 °F 40% 29.72 in 10.0 mi South 18.4 mph 23.0 mph N/A   Scattered Clouds
2:15 PM 51.8 °F - 28.0 °F 40% 29.71 in 10.0 mi SSW 17.3 mph 23.0 mph N/A   Clear
2:35 PM 51.8 °F - 28.2 °F 40% 29.70 in 10.0 mi South 15.0 mph 21.9 mph N/A   Clear
2:55 PM 51.8 °F - 27.9 °F 40% 29.69 in 10.0 mi South 24.2 mph 29.9 mph N/A   Clear
3:15 PM 51.8 °F - 27.3 °F 39% 29.68 in 10.0 mi SSW 16.1 mph 23.0 mph N/A   Clear
3:35 PM 51.8 °F - 28.0 °F 40% 29.67 in 10.0 mi SSW 11.5 mph 24.2 mph N/A   Clear
3:55 PM 51.8 °F - 27.3 °F 39% 29.67 in 10.0 mi SSW 17.3 mph 25.3 mph N/A   Clear
4:15 PM 51.8 °F - 27.1 °F 39% 29.65 in 10.0 mi SSW 19.6 mph 32.2 mph N/A   Clear
4:35 PM 51.8 °F - 28.0 °F 40% 29.64 in 10.0 mi SW 18.4 mph 28.8 mph N/A   Clear
4:55 PM 53.4 °F - 28.9 °F 39% 29.63 in 10.0 mi SSW 16.1 mph 29.9 mph N/A   Clear
5:15 PM 54.3 °F - 30.0 °F 39% 29.62 in 10.0 mi SSW 17.3 mph 26.5 mph N/A   Clear
5:35 PM 54.5 °F - 30.2 °F 39% 29.62 in 10.0 mi SSW 16.1 mph 23.0 mph N/A   Clear
5:55 PM 53.6 °F - 29.8 °F 40% 29.61 in 10.0 mi SSW 13.8 mph 24.2 mph N/A   Clear
6:15 PM 54.1 °F - 30.4 °F 40% 29.60 in 10.0 mi SSW 13.8 mph 21.9 mph N/A   Clear
6:35 PM 53.1 °F - 30.2 °F 42% 29.60 in 10.0 mi SSW 10.4 mph 18.4 mph N/A   Clear
6:55 PM 52.0 °F - 30.0 °F 43% 29.60 in 10.0 mi SSW 12.7 mph 17.3 mph N/A   Clear
7:15 PM 51.8 °F - 30.2 °F 44% 29.60 in 10.0 mi SSW 11.5 mph - N/A   Clear
7:35 PM 51.8 °F - 31.6 °F 46% 29.59 in 10.0 mi SSW 6.9 mph - N/A   Clear
7:55 PM 49.3 °F - 32.0 °F 51% 29.59 in 10.0 mi South 5.8 mph - N/A   Clear
8:15 PM 49.3 °F - 32.5 °F 53% 29.58 in 10.0 mi SSW 10.4 mph 16.1 mph N/A   Clear
8:35 PM 49.3 °F - 32.9 °F 53% 29.57 in 10.0 mi South 9.2 mph - N/A   Clear
8:55 PM 49.3 °F - 33.4 °F 54% 29.57 in 10.0 mi South 8.1 mph - N/A   Clear
9:15 PM 47.1 °F - 32.2 °F 56% 29.55 in 10.0 mi South 10.4 mph - N/A   Clear
9:35 PM 47.8 °F - 32.9 °F 56% 29.53 in 10.0 mi South 11.5 mph - N/A   Clear
9:55 PM 49.3 °F - 33.8 °F 55% 29.52 in 10.0 mi SSW 13.8 mph 18.4 mph N/A   Clear
10:15 PM 49.3 °F - 33.4 °F 54% 29.51 in 10.0 mi SSW 12.7 mph - N/A   Clear
10:35 PM 49.3 °F - 34.0 °F 56% 29.51 in 10.0 mi SSW 12.7 mph 16.1 mph N/A   Clear
10:55 PM 48.4 °F - 33.3 °F 56% 29.50 in 10.0 mi SSW 12.7 mph - N/A   Clear
11:15 PM 46.8 °F - 32.2 °F 57% 29.49 in 10.0 mi SSW 10.4 mph 17.3 mph N/A   Clear
11:35 PM 46.6 °F - 32.4 °F 58% 29.48 in 10.0 mi SSW 11.5 mph - N/A   Clear
11:55 PM 48.9 °F - 33.4 °F 55% 29.47 in 10.0 mi SSW 12.7 mph - N/A   Clear